FREGAT R/B

基本信息
目录编号:
37345
目录名称:
FREGAT R/B
国际标识:
2011-001B
轨道中心:
EARTH
物体状态:
在轨
发射日期:
2011-01-20 UTC
国别:
俄罗斯(独联体) (CIS)
轨道信息
数据来源: 国际轨道数据
星历时间: 2026-07-14T02:40:46+0800
半长轴: 41470.978km
偏心率: 0.0151808
轨道倾角: 10.290°
近地点辐角: 72.393°
升交点赤经: 42.142°
平近点角: 113.202°
近地点: 34463.278km
远地点: 35722.404km
周期: 1400.800分钟
每日圈数: 1.027984
详细信息
发射场:
TTMTR
轨道高度:
MEO
数据来源:
AOE Integration Group
参考系:
TEME
时间系统:
UTC
历元类型:
SGP4
2D轨道图
3D轨道图
轨道高度分析图
轨道倾角分析图
轨道综合分析图
查看轨道综合分析图